Tarifa en Andalucia

latitud = 36° 01' 08''N | longitud = 005° 35' 58''W
56 metros sobre el nivel del mar | datos mensuales

Fecha, hora, temperatura, viento dirección y velocidad, humedad y presión.

  • 21-01-2018 02:00:00 | 14.50°C | Noroeste |13.00 km/h | 99.00% | 0.00 hPa
  • 21-01-2018 01:00:00 | 12.60°C | Noroeste |12.00 km/h | 99.00% | 0.00 hPa
  • 21-01-2018 00:00:00 | 13.10°C | Oeste |8.00 km/h | 94.00% | 0.00 hPa
  • 20-01-2018 23:00:00 | 15.30°C | Oeste |7.00 km/h | 96.00% | 0.00 hPa
  • 20-01-2018 22:00:00 | 14.50°C | Noroeste |10.00 km/h | 99.00% | 0.00 hPa
  • 20-01-2018 21:00:00 | 13.50°C | Noroeste |11.00 km/h | 99.00% | 0.00 hPa
  • 20-01-2018 20:00:00 | 14.10°C | Oeste |13.00 km/h | 99.00% | 0.00 hPa
  • 20-01-2018 19:00:00 | 14.80°C | Sudoeste |17.00 km/h | 97.00% | 0.00 hPa
  • 20-01-2018 18:00:00 | 14.90°C | Sudoeste |19.00 km/h | 94.00% | 0.00 hPa
  • 20-01-2018 17:00:00 | 15.50°C | Sudoeste |18.00 km/h | 91.00% | 0.00 hPa
  • 20-01-2018 16:00:00 | 15.60°C | Oeste |21.00 km/h | 89.00% | 0.00 hPa
  • 20-01-2018 15:00:00 | 15.80°C | Oeste |19.00 km/h | 86.00% | 0.00 hPa
  • 20-01-2018 14:00:00 | 15.60°C | Oeste |20.00 km/h | 89.00% | 0.00 hPa
  • 20-01-2018 13:00:00 | 14.90°C | Sudoeste |16.00 km/h | 93.00% | 0.00 hPa
  • 20-01-2018 12:00:00 | 13.90°C | Sudoeste |19.00 km/h | 99.00% | 0.00 hPa
  • 20-01-2018 11:00:00 | 13.00°C | Sudoeste |21.00 km/h | 99.00% | 0.00 hPa
  • 20-01-2018 10:00:00 | 13.10°C | Sudoeste |20.00 km/h | 99.00% | 0.00 hPa
  • 20-01-2018 09:00:00 | 14.90°C | Sudoeste |15.00 km/h | 99.00% | 0.00 hPa
  • 20-01-2018 08:00:00 | 15.10°C | Sudoeste |18.00 km/h | 99.00% | 0.00 hPa
  • 20-01-2018 07:00:00 | 14.70°C | Norte |8.00 km/h | 97.00% | 0.00 hPa
  • 20-01-2018 06:00:00 | 14.20°C | Norte |13.00 km/h | 97.00% | 0.00 hPa
  • 20-01-2018 05:00:00 | 14.30°C | Noroeste |15.00 km/h | 97.00% | 0.00 hPa
  • 20-01-2018 04:00:00 | 14.30°C | Norte |9.00 km/h | 97.00% | 0.00 hPa
  • 20-01-2018 03:00:00 | 14.00°C | Norte |10.00 km/h | 97.00% | 0.00 hPa